Find Starlink 5472

NORAD ID: 54767 Int'l Des: 2022-175 Owner: SPXS Country: US Constellation: starlink operational
LEOCIRCULAR

当前视图

正在加载3D地球...

About Starlink 5472

Starlink 5472 (NORAD 54767) is a starlink constellation satellite (v1.5) launched Dec 17, 2022 by SPXS of US. It operates in LEO, CIRCULAR orbit with a mass of 305.00 kg.

即将过境

Passes for default location (London). Set your location on the main map for personalized predictions.

高度历史

Loading altitude history...

两行轨道根数

1 54767U 22175K 26266.00002315 .00022134 00000-0 12268-2 0 9992
2 54767 53.1598 237.5923 0000921 99.6101 38.9763 15.13739747 5818
Epoch: Sep 23, 2026 • Age: 6 hours

当前状态

高度 530.6 km
远地点 / 近地点 N/A
速度 7.60 km/s
星下点 52.77°N, 116.68°W
发射日期 Dec 17, 2022
运行时间 3.7 years
类型 internet

技术详情

分类 Payload
质量 305.00 kg
干质量 290.00 kg
长度 0.20 m
跨度 9.00 m
形状 ? Box + pan
制造商 SPXS
平台类型 Starlink
阶段状态 In Orbit
所有者/国家 SPXS/US

Most Searched